Location: Arcusa
(42.3167°N, 0.0833°W)
Time: 22:00:39
(UTC+00:00)

Cosmos 1953 Rocket - Pass Details

Date: 25 January 2020
Orbit: 603 x 636 km, 82.5° (Epoch: 25 February)

Event Time Altitude Azimuth Distance (km) Brightness Sun altitude
Exits shadow 05:55:42 16° 330° (NNW) 1,649 5.4 -15.7°
Maximum altitude 05:58:49 37° 269° (W) 963 4.0 -15.2°
Drops below altitude 10° 06:02:49 10° 202° (SSW) 1,965 6.0 -14.5°
Sets 06:05:07 0° 194° (SSW) 2,859 7.0 -14.0°
